Time,TemperatureF,DewpointF,PressureIn,WindDirection,WindDirectionDegrees,WindSpeedMPH,WindSpeedGustMPH,Humidity,HourlyPrecipIn,Conditions,Clouds,dailyrainin,SoftwareType,DateUTC
2013-01-08 00:17:00,63.4,62.0,30.16,ENE,60,5.0,-999.0,94,-99.99,,,0.00,weatherlink.com 1.10,2013-01-08 05:17:00,
2013-01-08 00:32:00,63.4,62.0,30.16,NE,49,0.0,-999.0,95,-99.99,,,0.00,weatherlink.com 1.10,2013-01-08 05:32:00,
2013-01-08 00:47:00,63.5,62.0,30.16,NE,49,2.0,-999.0,95,-99.99,,,0.00,weatherlink.com 1.10,2013-01-08 05:47:00,
2013-01-08 01:02:00,63.6,62.0,30.16,NE,50,2.0,-999.0,95,-99.99,,,0.00,weatherlink.com 1.10,2013-01-08 06:02:00,
2013-01-08 01:17:00,63.7,62.0,30.16,NE,49,2.0,-999.0,95,-99.99,,,0.00,weatherlink.com 1.10,2013-01-08 06:17:00,
2013-01-08 01:32:00,63.8,62.0,30.16,NE,49,4.0,-999.0,95,-99.99,,,0.00,weatherlink.com 1.10,2013-01-08 06:32:00,
2013-01-08 01:47:00,63.9,63.0,30.15,NE,51,2.0,-999.0,95,-99.99,,,0.00,weatherlink.com 1.10,2013-01-08 06:47:00,
2013-01-08 02:02:00,64.0,63.0,30.15,NE,51,3.0,-999.0,95,-99.99,,,0.00,weatherlink.com 1.10,2013-01-08 07:02:00,
2013-01-08 02:17:00,64.1,63.0,30.15,NE,55,4.0,-999.0,95,-99.99,,,0.00,weatherlink.com 1.10,2013-01-08 07:17:00,
2013-01-08 02:32:00,64.2,63.0,30.15,NE,51,2.0,-999.0,96,-99.99,,,0.00,weatherlink.com 1.10,2013-01-08 07:32:00,
2013-01-08 02:47:00,64.3,63.0,30.14,NE,55,2.0,-999.0,96,-99.99,,,0.00,weatherlink.com 1.10,2013-01-08 07:47:00,
2013-01-08 03:02:00,64.3,63.0,30.14,NE,55,1.0,-999.0,96,-99.99,,,0.00,weatherlink.com 1.10,2013-01-08 08:02:00,
2013-01-08 03:17:00,64.4,63.0,30.14,NE,55,0.0,-999.0,96,-99.99,,,0.00,weatherlink.com 1.10,2013-01-08 08:17:00,
2013-01-08 03:32:00,64.5,63.0,30.14,NE,51,4.0,-999.0,96,-99.99,,,0.00,weatherlink.com 1.10,2013-01-08 08:32:00,
2013-01-08 03:47:00,64.5,63.0,30.14,NE,47,0.0,-999.0,96,-99.99,,,0.00,weatherlink.com 1.10,2013-01-08 08:47:00,
2013-01-08 04:03:00,64.5,63.0,30.14,NE,48,2.0,-999.0,96,-99.99,,,0.00,weatherlink.com 1.10,2013-01-08 09:03:00,
2013-01-08 04:17:00,64.7,64.0,30.13,NE,44,2.0,-999.0,96,-99.99,,,0.00,weatherlink.com 1.10,2013-01-08 09:17:00,
2013-01-08 04:32:00,64.7,64.0,30.13,NE,45,1.0,-999.0,96,-99.99,,,0.00,weatherlink.com 1.10,2013-01-08 09:32:00,
2013-01-08 04:47:00,64.8,64.0,30.13,ENE,63,2.0,-999.0,96,-99.99,,,0.00,weatherlink.com 1.10,2013-01-08 09:47:00,
2013-01-08 05:02:00,64.8,64.0,30.14,ENE,61,0.0,-999.0,96,-99.99,,,0.00,weatherlink.com 1.10,2013-01-08 10:02:00,
2013-01-08 05:17:00,64.8,64.0,30.14,ENE,61,0.0,-999.0,96,-99.99,,,0.00,weatherlink.com 1.10,2013-01-08 10:17:00,
2013-01-08 05:32:00,64.8,64.0,30.14,ENE,61,0.0,-999.0,96,-99.99,,,0.00,weatherlink.com 1.10,2013-01-08 10:32:00,
2013-01-08 05:47:00,65.0,64.0,30.15,ENE,61,2.0,-999.0,96,-99.99,,,0.00,weatherlink.com 1.10,2013-01-08 10:47:00,
2013-01-08 06:02:00,65.3,64.0,30.15,ENE,61,4.0,-999.0,96,-99.99,,,0.00,weatherlink.com 1.10,2013-01-08 11:02:00,
2013-01-08 06:17:00,65.4,64.0,30.15,ENE,59,2.0,-999.0,96,-99.99,,,0.00,weatherlink.com 1.10,2013-01-08 11:17:00,
2013-01-08 06:32:00,65.6,65.0,30.15,NE,56,3.0,-999.0,96,-99.99,,,0.00,weatherlink.com 1.10,2013-01-08 11:32:00,
2013-01-08 06:47:00,65.7,65.0,30.16,NE,51,2.0,-999.0,96,-99.99,,,0.00,weatherlink.com 1.10,2013-01-08 11:47:00,
2013-01-08 07:02:00,65.8,65.0,30.16,NNE,22,4.0,-999.0,96,-99.99,,,0.00,weatherlink.com 1.10,2013-01-08 12:02:00,
2013-01-08 07:17:00,66.0,65.0,30.17,NE,52,2.0,-999.0,95,-99.99,,,0.00,weatherlink.com 1.10,2013-01-08 12:17:00,
2013-01-08 07:32:00,66.1,65.0,30.18,ENE,59,3.0,-999.0,96,-99.99,,,0.00,weatherlink.com 1.10,2013-01-08 12:32:00,
2013-01-08 07:47:00,66.4,65.0,30.18,ENE,57,0.0,-999.0,96,-99.99,,,0.00,weatherlink.com 1.10,2013-01-08 12:47:00,
2013-01-08 08:02:00,66.6,66.0,30.20,ENE,65,0.0,-999.0,96,-99.99,,,0.00,weatherlink.com 1.10,2013-01-08 13:02:00,
2013-01-08 08:17:00,67.0,66.0,30.20,ENE,65,2.0,-999.0,96,-99.99,,,0.00,weatherlink.com 1.10,2013-01-08 13:17:00,
2013-01-08 08:32:00,67.6,67.0,30.21,NE,51,3.0,-999.0,96,-99.99,,,0.00,weatherlink.com 1.10,2013-01-08 13:32:00,
2013-01-08 08:47:00,67.9,67.0,30.22,NE,40,4.0,-999.0,96,-99.99,,,0.00,weatherlink.com 1.10,2013-01-08 13:47:00,
2013-01-08 09:02:00,68.4,67.0,30.22,ENE,73,6.0,-999.0,95,-99.99,,,0.00,weatherlink.com 1.10,2013-01-08 14:02:00,
2013-01-08 09:17:00,69.0,68.0,30.23,NE,49,3.0,-999.0,95,-99.99,,,0.00,weatherlink.com 1.10,2013-01-08 14:17:00,
2013-01-08 09:32:00,69.6,68.0,30.23,ENE,72,4.0,-999.0,94,-99.99,,,0.00,weatherlink.com 1.10,2013-01-08 14:32:00,
2013-01-08 09:47:00,70.3,69.0,30.23,NE,40,6.0,-999.0,94,-99.99,,,0.00,weatherlink.com 1.10,2013-01-08 14:47:00,
2013-01-08 10:02:00,71.0,69.0,30.23,East,98,1.0,-999.0,93,-99.99,,,0.00,weatherlink.com 1.10,2013-01-08 15:02:00,
2013-01-08 10:17:00,71.7,69.0,30.23,ENE,65,4.0,-999.0,92,-99.99,,,0.00,weatherlink.com 1.10,2013-01-08 15:17:00,
2013-01-08 10:32:00,73.1,70.0,30.22,ESE,123,10.0,-999.0,89,-99.99,,,0.00,weatherlink.com 1.10,2013-01-08 15:32:00,
2013-01-08 10:47:00,74.7,70.0,30.22,ESE,107,5.0,-999.0,86,-99.99,,,0.00,weatherlink.com 1.10,2013-01-08 15:47:00,
2013-01-08 11:02:00,75.3,70.0,30.22,East,97,8.0,-999.0,82,-99.99,,,0.00,weatherlink.com 1.10,2013-01-08 16:02:00,
2013-01-08 11:17:00,76.5,70.0,30.21,SSW,192,3.0,-999.0,79,-99.99,,,0.00,weatherlink.com 1.10,2013-01-08 16:17:00,
2013-01-08 11:32:00,77.3,70.0,30.20,ESE,114,0.0,-999.0,77,-99.99,,,0.00,weatherlink.com 1.10,2013-01-08 16:32:00,
2013-01-08 11:47:00,78.3,69.0,30.20,SE,144,0.0,-999.0,74,-99.99,,,0.00,weatherlink.com 1.10,2013-01-08 16:47:00,
2013-01-08 12:02:00,78.7,69.0,30.19,NE,43,3.0,-999.0,73,-99.99,,,0.00,weatherlink.com 1.10,2013-01-08 17:02:00,
2013-01-08 12:17:00,80.1,70.0,30.18,WNW,303,0.0,-999.0,71,-99.99,,,0.00,weatherlink.com 1.10,2013-01-08 17:17:00,
2013-01-08 12:32:00,80.4,69.0,30.18,ESE,107,1.0,-999.0,68,-99.99,,,0.00,weatherlink.com 1.10,2013-01-08 17:32:00,
2013-01-08 12:47:00,80.1,68.0,30.18,SE,125,0.0,-999.0,67,-99.99,,,0.00,weatherlink.com 1.10,2013-01-08 17:47:00,
2013-01-08 13:03:00,80.0,68.0,30.17,South,171,1.0,-999.0,67,-99.99,,,0.00,weatherlink.com 1.10,2013-01-08 18:03:00,
2013-01-08 13:18:00,80.0,68.0,30.17,SSW,212,1.0,-999.0,67,-99.99,,,0.00,weatherlink.com 1.10,2013-01-08 18:18:00,
2013-01-08 13:33:00,79.8,68.0,30.16,East,92,2.0,-999.0,67,-99.99,,,0.00,weatherlink.com 1.10,2013-01-08 18:33:00,
2013-01-08 13:48:00,79.6,69.0,30.16,NE,53,0.0,-999.0,69,-99.99,,,0.00,weatherlink.com 1.10,2013-01-08 18:48:00,
2013-01-08 14:03:00,79.4,69.0,30.15,ENE,66,0.0,-999.0,70,-99.99,,,0.00,weatherlink.com 1.10,2013-01-08 19:03:00,
2013-01-08 14:18:00,79.3,68.0,30.15,ESE,117,5.0,-999.0,68,-99.99,,,0.00,weatherlink.com 1.10,2013-01-08 19:18:00,
2013-01-08 14:33:00,79.3,68.0,30.15,SE,135,4.0,-999.0,69,-99.99,,,0.00,weatherlink.com 1.10,2013-01-08 19:33:00,
2013-01-08 14:48:00,79.3,69.0,30.14,SE,128,4.0,-999.0,70,-99.99,,,0.00,weatherlink.com 1.10,2013-01-08 19:48:00,
2013-01-08 15:03:00,80.0,68.0,30.15,ESE,120,1.0,-999.0,66,-99.99,,,0.00,weatherlink.com 1.10,2013-01-08 20:03:00,
2013-01-08 15:18:00,80.3,68.0,30.14,SE,135,0.0,-999.0,66,-99.99,,,0.00,weatherlink.com 1.10,2013-01-08 20:18:00,
2013-01-08 15:33:00,80.1,69.0,30.15,ESE,107,5.0,-999.0,68,-99.99,,,0.00,weatherlink.com 1.10,2013-01-08 20:33:00,
2013-01-08 15:48:00,78.9,68.0,30.15,ESE,103,5.0,-999.0,70,-99.99,,,0.00,weatherlink.com 1.10,2013-01-08 20:48:00,
2013-01-08 16:03:00,78.6,68.0,30.15,SE,136,6.0,-999.0,71,-99.99,,,0.00,weatherlink.com 1.10,2013-01-08 21:03:00,
2013-01-08 16:18:00,78.6,69.0,30.15,ESE,117,5.0,-999.0,73,-99.99,,,0.00,weatherlink.com 1.10,2013-01-08 21:18:00,
2013-01-08 16:33:00,78.3,69.0,30.15,East,85,5.0,-999.0,74,-99.99,,,0.00,weatherlink.com 1.10,2013-01-08 21:33:00,
2013-01-08 16:48:00,77.8,70.0,30.15,East,92,0.0,-999.0,76,-99.99,,,0.00,weatherlink.com 1.10,2013-01-08 21:48:00,
2013-01-08 17:03:00,77.4,70.0,30.15,East,90,0.0,-999.0,77,-99.99,,,0.00,weatherlink.com 1.10,2013-01-08 22:03:00,
2013-01-08 17:18:00,76.9,70.0,30.16,ESE,102,2.0,-999.0,79,-99.99,,,0.00,weatherlink.com 1.10,2013-01-08 22:18:00,
2013-01-08 17:33:00,76.4,70.0,30.16,ESE,102,4.0,-999.0,80,-99.99,,,0.00,weatherlink.com 1.10,2013-01-08 22:33:00,
2013-01-08 17:48:00,76.1,70.0,30.16,ENE,67,6.0,-999.0,80,-99.99,,,0.00,weatherlink.com 1.10,2013-01-08 22:48:00,
2013-01-08 18:18:00,75.4,70.0,30.17,ENE,63,6.0,-999.0,82,-99.99,,,0.00,weatherlink.com 1.10,2013-01-08 23:18:00,
2013-01-08 18:33:00,75.0,70.0,30.18,ENE,78,2.0,-999.0,83,-99.99,,,0.00,weatherlink.com 1.10,2013-01-08 23:33:00,
2013-01-08 18:48:00,74.7,70.0,30.18,ENE,63,5.0,-999.0,84,-99.99,,,0.00,weatherlink.com 1.10,2013-01-08 23:48:00,
2013-01-08 19:03:00,74.4,69.0,30.18,ESE,107,1.0,-999.0,84,-99.99,,,0.00,weatherlink.com 1.10,2013-01-09 00:03:00,
2013-01-08 19:18:00,73.8,69.0,30.18,ENE,78,5.0,-999.0,85,-99.99,,,0.00,weatherlink.com 1.10,2013-01-09 00:18:00,
2013-01-08 19:33:00,73.4,69.0,30.18,ESE,102,4.0,-999.0,87,-99.99,,,0.00,weatherlink.com 1.10,2013-01-09 00:33:00,
2013-01-08 19:49:00,72.9,69.0,30.18,ENE,76,0.0,-999.0,87,-99.99,,,0.00,weatherlink.com 1.10,2013-01-09 00:49:00,
2013-01-08 20:03:00,72.4,69.0,30.18,East,92,3.0,-999.0,88,-99.99,,,0.00,weatherlink.com 1.10,2013-01-09 01:03:00,
2013-01-08 20:18:00,72.0,69.0,30.18,East,96,2.0,-999.0,89,-99.99,,,0.00,weatherlink.com 1.10,2013-01-09 01:18:00,
2013-01-08 20:33:00,71.7,69.0,30.19,East,96,1.0,-999.0,90,-99.99,,,0.00,weatherlink.com 1.10,2013-01-09 01:33:00,
2013-01-08 20:48:00,71.5,69.0,30.19,East,82,4.0,-999.0,91,-99.99,,,0.00,weatherlink.com 1.10,2013-01-09 01:48:00,
2013-01-08 21:03:00,71.6,69.0,30.19,East,95,7.0,-999.0,91,-99.99,,,0.00,weatherlink.com 1.10,2013-01-09 02:03:00,
2013-01-08 21:18:00,71.4,69.0,30.18,NE,44,1.0,-999.0,91,-99.99,,,0.00,weatherlink.com 1.10,2013-01-09 02:18:00,
2013-01-08 21:33:00,71.2,69.0,30.19,ENE,75,2.0,-999.0,92,-99.99,,,0.00,weatherlink.com 1.10,2013-01-09 02:33:00,
2013-01-08 21:48:00,71.0,69.0,30.19,East,86,0.0,-999.0,92,-99.99,,,0.00,weatherlink.com 1.10,2013-01-09 02:48:00,
2013-01-08 22:02:00,70.8,69.0,30.19,East,86,1.0,-999.0,93,-99.99,,,0.00,weatherlink.com 1.10,2013-01-09 03:02:00,
2013-01-08 22:18:00,70.5,68.0,30.20,East,86,1.0,-999.0,93,-99.99,,,0.00,weatherlink.com 1.10,2013-01-09 03:18:00,
2013-01-08 22:33:00,70.3,69.0,30.20,East,86,1.0,-999.0,94,-99.99,,,0.00,weatherlink.com 1.10,2013-01-09 03:33:00,
2013-01-08 22:48:00,70.1,68.0,30.20,East,86,1.0,-999.0,94,-99.99,,,0.00,weatherlink.com 1.10,2013-01-09 03:48:00,
2013-01-08 23:02:00,70.0,68.0,30.20,East,86,0.0,-999.0,94,-99.99,,,0.00,weatherlink.com 1.10,2013-01-09 04:02:00,
2013-01-08 23:18:00,70.0,69.0,30.21,East,86,1.0,-999.0,95,-99.99,,,0.00,weatherlink.com 1.10,2013-01-09 04:18:00,
2013-01-08 23:33:00,70.0,69.0,30.21,East,86,0.0,-999.0,95,-99.99,,,0.00,weatherlink.com 1.10,2013-01-09 04:33:00,
2013-01-08 23:48:00,69.9,69.0,30.21,East,86,0.0,-999.0,95,-99.99,,,0.00,weatherlink.com 1.10,2013-01-09 04:48:00,